RH
53 49 51 52 55 56 56 56 53 47 45 37 38 44 45 48 52 60 71 72 72 71 77 83 77 71 63 51 43 40 38 34 34 37 39 38 34 36 47 46 41 34 29
47 47 50 55 59 60 58 57 52 47 45 44 43 45 49 54 54 57 66 72 71 69 73 83 79 78 70 58 50 41 42 39 38 38 40 37 32 36 40 47 43 35 29
43 43 51 55 56 58 56 53 47 48 47 44 39 42 45 50 55 59 60 66 66 64 69 74 76 77 76 64 61 40 49 47 42 50 48 44 35 45 42 39 41 38 32
40 43 50 51 50 50 49 50 47 47 46 46 46 47 52 57 55 54 57 60 58 62 66 69 72 72 77 70 64 38 47 55 54 63 57 48 39 38 37 35 37 41 42
43 48 50 48 50 50 51 51 48 50 50 53 52 50 52 56 59 61 64 60 57 58 63 67 68 68 71 79 62 39 45 56 58 83 81 58 51 40 36 34 36 39 48
48 48 48 48 52 53 52 51 49 48 48 48 49 50 51 53 55 60 60 60 65 67 61 68 67 68 71 74 58 41 47 52 55 59 57 60 55 46 42 41 40 51 42
48 51 50 50 53 53 50 48 50 48 46 42 42 43 45 48 51 53 57 61 69 71 65 64 68 67 72 72 54 43 47 51 57 63 63 57 60 55 47 45 42 43 44
50 54 51 50 53 54 52 48 51 48 47 44 45 45 45 46 46 47 49 59 69 71 72 70 69 70 69 75 58 47 49 57 56 77 71 62 60 49 48 50 45 46 45
67 57 48 51 53 54 54 52 51 51 47 46 45 46 46 47 49 48 50 53 60 69 71 78 70 64 70 73 71 54 49 56 73 67 64 61 63 52 49 47 49 49 49
50 50 50 51 53 55 55 56 55 58 52 49 49 47 46 46 45 47 47 49 50 57 68 73 69 70 69 71 76 72 53 50 62 64 76 69 65 61 54 50 51 52 52
47 47 53 56 62 61 64 63 60 58 64 56 56 53 53 53 52 48 52 53 54 52 56 60 68 72 67 64 71 75 71 62 64 67 67 77 68 57 56 57 54 55 55
50 53 56 52 60 69 74 77 74 68 63 62 63 60 58 77 81 64 55 58 57 52 50 54 56 63 63 62 64 73 76 68 72 76 92 74 75 66 54 60 58 57 64
59 64 57 54 55 63 75 73 78 78 75 74 83 89 69 75 74 64 67 55 55 60 54 52 57 55 57 60 67 70 73 77 77 73 76 74 82 69 63 63 64 59 65
54 62 63 60 57 61 62 61 64 74 78 87 84 85 86 78 77 76 80 72 66 61 66 61 67 63 62 59 68 77 71 78 78 80 72 77 75 69 67 64 66 68 73
60 57 63 71 63 59 59 74 92 71 87 79 83 77 70 67 68 66 68 73 69 61 56 68 85 79 96 82 73 76 69 71 78 78 79 77 82 76 66 67 70 74 79
60 60 65 69 70 67 54 53 58 67 74 68 65 67 62 60 60 59 60 58 55 62 62 58 73 80 88 85 80 69 68 68 77 73 74 76 77 76 71 74 74 76 80
61 62 63 64 70 69 65 53 55 67 59 60 82 64 64 62 59 57 64 61 55 66 64 71 72 75 75 80 86 79 70 63 63 69 72 72 75 73 75 71 68 71 77
61 61 63 64 68 72 82 69 59 64 67 65 65 64 68 67 65 64 67 65 52 56 58 63 72 76 79 90 97 71 69 75 73 64 63 72 80 77 76 76 71 63 68
65 60 63 60 65 75 85 83 74 68 65 68 75 72 68 69 72 64 67 72 75 67 62 63 64 72 76 75 70 71 92 69 74 73 58 61 74 79 81 78 79 80 75
64 64 69 59 64 74 89 91 85 78 70 74 78 82 82 78 69 71 69 70 79 75 71 73 74 82 81 73 69 51 56 61 66 73 68 50 60 71 78 88 86 81 82
66 64 69 63 63 80 87 91 84 84 82 82 85 77 77 55 54 52 57 71 72 78 79 77 83 89 84 96 92 64 58 63 63 61 59 46 50 64 71 78 81 82 84
65 64 65 61 65 78 89 87 85 88 83 81 75 70 52 50 44 46 61 67 74 77 80 83 86 95 87 93 82 74 69 67 67 66 62 52 40 53 67 74 76 79 89
55 57 58 54 62 73 87 86 84 84 89 80 61 53 52 43 41 53 57 62 68 71 75 77 82 87 90 88 87 84 82 77 74 72 73 68 55 48 58 74 77 81 85
53 55 53 53 59 67 79 80 81 84 67 57 56 51 46 43 52 71 69 70 70 69 71 75 80 82 85 85 82 87 87 84 82 73 69 64 62 57 56 69 70 78 85
53 53 47 50 57 59 61 68 70 59 54 51 47 42 45 44 57 73 78 75 69 72 71 72 75 80 86 89 87 88 89 85 84 75 70 60 54 67 77 74 78 83 88
52 52 49 46 53 54 51 51 52 51 47 46 45 50 47 50 57 66 75 73 72 72 70 76 77 80 90 92 88 88 86 85 87 78 70 47 52 73 79 78 82 89 90